Location: Beccas
(43.4309°N, 0.1528°E)
Time: 23:32:15
(UTC+00:00)

Cosmos 1470 - Pass Details

Date: 15 October 2021
Orbit: 519 x 541 km, 82.5° (Epoch: 05 December)

Event Time Altitude Azimuth Distance (km) Brightness Sun altitude
Rises 18:03:55 0° 200° (SSW) 2,687 6.7 -9.4°
Reaches altitude 10° 18:06:07 10° 206° (SSW) 1,801 5.8 -9.8°
Maximum altitude 18:09:58 48° 282° (WNW) 714 3.9 -10.5°
Drops below altitude 10° 18:13:50 10° 357° (N) 1,816 5.5 -11.2°
Sets 18:16:04 0° 3° (N) 2,712 6.3 -11.7°
